/browser/devtools/styleinspector/test/
drwxr-xr-x [up]
drwxr-xr-x browser_styleinspector_bug_677930_urls_clickable
-rw-r--r-- 2013-08-16 23:07 +0100 2548 Makefile.in
-rw-r--r-- 2013-08-16 23:07 +0100 4085 browser_bug589375_keybindings.js
-rw-r--r-- 2013-08-16 23:07 +0100 633 browser_bug683672.html
-rw-r--r-- 2013-08-16 23:07 +0100 1827 browser_bug683672.js
-rw-r--r-- 2013-08-16 23:07 +0100 692 browser_bug705707_is_content_stylesheet.html
-rw-r--r-- 2013-08-16 23:07 +0100 2896 browser_bug705707_is_content_stylesheet.js
-rw-r--r-- 2013-08-16 23:07 +0100 426 browser_bug705707_is_content_stylesheet.xul
-rw-r--r-- 2013-08-16 23:07 +0100 115 browser_bug705707_is_content_stylesheet_imported.css
-rw-r--r-- 2013-08-16 23:07 +0100 42 browser_bug705707_is_content_stylesheet_imported2.css
-rw-r--r-- 2013-08-16 23:07 +0100 40 browser_bug705707_is_content_stylesheet_linked.css
-rw-r--r-- 2013-08-16 23:07 +0100 97 browser_bug705707_is_content_stylesheet_script.css
-rw-r--r-- 2013-08-16 23:07 +0100 32 browser_bug705707_is_content_stylesheet_xul.css
-rw-r--r-- 2013-08-16 23:07 +0100 344 browser_bug722196_identify_media_queries.html
-rw-r--r-- 2013-08-16 23:07 +0100 1696 browser_bug722196_property_view_media_queries.js
-rw-r--r-- 2013-08-16 23:07 +0100 1361 browser_bug722196_rule_view_media_queries.js
-rw-r--r-- 2013-08-16 23:07 +0100 8349 browser_bug722691_rule_view_increment.js
-rw-r--r-- 2013-08-16 23:07 +0100 4483 browser_bug893965_css_property_completion_existing_property.js
-rw-r--r-- 2013-08-16 23:07 +0100 4061 browser_bug893965_css_property_completion_new_property.js
-rw-r--r-- 2013-08-16 23:07 +0100 4304 browser_bug894376_css_value_completion_existing_property_value_pair.js
-rw-r--r-- 2013-08-16 23:07 +0100 4303 browser_bug894376_css_value_completion_new_property_value_pair.js
-rw-r--r-- 2013-08-16 23:07 +0100 2847 browser_bug_592743_specificity.js
-rw-r--r-- 2013-08-16 23:07 +0100 2058 browser_bug_692400_element_style.js
-rw-r--r-- 2013-08-16 23:07 +0100 5177 browser_computedview_734259_style_editor_link.js
-rw-r--r-- 2013-08-16 23:07 +0100 4835 browser_computedview_copy.js
-rw-r--r-- 2013-08-16 23:07 +0100 1313 browser_csslogic_inherited.js
-rw-r--r-- 2013-08-16 23:07 +0100 5032 browser_ruleview_734259_style_editor_link.js
-rw-r--r-- 2013-08-16 23:07 +0100 4942 browser_ruleview_copy.js
-rw-r--r-- 2013-08-16 23:07 +0100 2764 browser_ruleview_editor.js
-rw-r--r-- 2013-08-16 23:07 +0100 5611 browser_ruleview_editor_changedvalues.js
-rw-r--r-- 2013-08-16 23:07 +0100 2026 browser_ruleview_focus.js
-rw-r--r-- 2013-08-16 23:07 +0100 3114 browser_ruleview_inherit.js
-rw-r--r-- 2013-08-16 23:07 +0100 2786 browser_ruleview_manipulation.js
-rw-r--r-- 2013-08-16 23:07 +0100 4863 browser_ruleview_override.js
-rw-r--r-- 2013-08-16 23:07 +0100 7914 browser_ruleview_ui.js
-rw-r--r-- 2013-08-16 23:07 +0100 6372 browser_ruleview_update.js
-rw-r--r-- 2013-08-16 23:07 +0100 2839 browser_styleinspector.js
-rw-r--r-- 2013-08-16 23:07 +0100 3215 browser_styleinspector_bug_672744_search_filter.js
-rw-r--r-- 2013-08-16 23:07 +0100 3058 browser_styleinspector_bug_672746_default_styles.js
-rw-r--r-- 2013-08-16 23:07 +0100 801 browser_styleinspector_bug_677930_urls_clickable.html
-rw-r--r-- 2013-08-16 23:07 +0100 3540 browser_styleinspector_bug_677930_urls_clickable.js
-rw-r--r-- 2013-08-16 23:07 +0100 3274 browser_styleinspector_bug_689759_no_results_placeholder.js
-rw-r--r-- 2013-08-16 23:07 +0100 3455 head.js
-rw-r--r-- 2013-08-16 23:07 +0100 308 moz.build
-rw-r--r-- 2013-08-16 23:07 +0100 580 test-image.png